Regional Weather Roundup
Issued by NWS

Home | Current Version | Previous Version | Text Only | Print | Product List | Glossary Off
Versions: 1 2 3 4 5 6 7 8 9 10 11 12 13 14 15 16 17 18 19 20 21 22 23 24 25 26 27 28 29 30 31 32 33 34 35 36 37 38 39 40 41 42 43 44 45 46 47 48 49 50

000
ASUS45 KABQ 281201
RWRNM
NEW MEXICO REGIONAL WEATHER ROUNDUP
NATIONAL WEATHER SERVICE ALBUQUERQUE NM
600 AM MDT THU MAY 28 2015

NOTE: "FAIR" MEANS FEW OR NO CLOUDS BELOW 12,000 FEET AGL WITH NO
       SIGNIFICANT WEATHER OR OBSTRUCTIONS TO VISION.

      THIS PRODUCT IS RELEASED AS TWO VERSIONS.  ONE VERSION NEAR
      THE TOP OF THE HOUR CONTAINING PRELIMINARY DATA FROM ALBUQUERQUE
      AND OTHER STATIONS.  A FINAL VERSION WITH ADDITIONAL DATA IS
      ISSUED ABOUT 10 MINUTES AFTER THE HOUR.

NMZ501-503-504-510>518-281300-
NORTHWEST PLATEAU/NORTHCENTRAL MOUNTAINS

CITY           SKY/WX    TMP DP  RH WIND       PRES   REMARKS
FARMINGTON     CLEAR     46  38  73 NE5       30.09S
6HR MIN TEMP:  44; 6HR MAX TEMP:  59;

SANTA FE       MOCLDY    51  33  50 NE7       30.14R
6HR MIN TEMP:  48; 6HR MAX TEMP:  58;

TAOS           CLEAR     43  27  52 CALM      30.20R

$$
NMZ402-403-502-505>509-281300-
WESTCENTRAL MOUNTAINS/SOUTHWEST MOUNTAINS

CITY           SKY/WX    TMP DP  RH WIND       PRES   REMARKS
GALLUP         PTCLDY    39  29  67 CALM      30.19R
6HR MIN TEMP:  37; 6HR MAX TEMP:  50;

GRANTS         CLEAR     33  27  77 NW6       30.21R WCI  28
SILVER CITY      N/A     48  14  25 NW10      30.13R

$$
NMZ407-409-411-412-281300-
SOUTHERN DESERTS

CITY           SKY/WX    TMP DP  RH WIND       PRES   REMARKS
LORDSBURG      FAIR      54  18  24 CALM      30.06R
DEMING         PTCLDY    52  17  25 SW7       30.06R
6HR MIN TEMP:  52; 6HR MAX TEMP:  63;

HOLLOMAN AFB   PTCLDY    62  49  63 CALM      30.00R
ALAMOGORDO     PTCLDY    63  45  51 NE5       30.02R
T OR C         PTCLDY    60  17  18 NW8       30.07R
6HR MIN TEMP:  57; 6HR MAX TEMP:  67;


$$
NMZ519>523-281300-
CENTRAL VALLEYS/CENTRAL HIGHLANDS

CITY           SKY/WX    TMP DP  RH WIND       PRES   REMARKS
ALBUQUERQUE    PTCLDY    56  34  43 SW5       30.11R
6HR MIN TEMP:  54; 6HR MAX TEMP:  65;

DOUBLE EAGLE   PTCLDY    46  37  71 NW3       30.14R
MORIARTY ARPT  FAIR      42  37  83 E6        30.16S
6HR MIN TEMP:  39; 6HR MAX TEMP:  48;

CLINES CORNERS MOCLDY    50  25  37 SW12      30.17R
6HR MIN TEMP:  47; 6HR MAX TEMP:  58;

BELEN          FAIR      50  39  67 W5        30.11R
6HR MIN TEMP:  49; 6HR MAX TEMP:  64;

SOCORRO        NOT AVBL

$$
NMZ524>526-539-540-281300-
SOUTHCENTRAL MOUNTAINS

CITY           SKY/WX    TMP DP  RH WIND       PRES   REMARKS
RUIDOSO        NOT AVBL

$$
NMZ527>531-281300-
NORTHEAST HIGHLANDS/NORTHEAST PLAINS

CITY           SKY/WX    TMP DP  RH WIND       PRES   REMARKS
LAS VEGAS      MOCLDY    43  32  65 CALM      30.16R
6HR MIN TEMP:  42; 6HR MAX TEMP:  59;

RATON          CLEAR     47  41  80 N7        30.15R
6HR MIN TEMP:  46; 6HR MAX TEMP:  56;

CLAYTON        MOCLDY    56  53  90 SW6       30.09S
6HR MIN TEMP:  55; 6HR MAX TEMP:  60; 6HR PCP: TRACE;


$$
NMZ532>537-281300-
EASTCENTRAL PLAINS

CITY           SKY/WX    TMP DP  RH WIND       PRES   REMARKS
TUCUMCARI      CLEAR     60  56  86 E9        30.04S
6HR MIN TEMP:  59; 6HR MAX TEMP:  66;

CANNON AFB     FOG       61  61 100 SE12      30.07F VSB<1/4
6HR MIN TEMP:  57; 6HR MAX TEMP:  66;

CLOVIS AIRPORT CLOUDY    61  59  94 SE13        N/A  VSB<1/4

$$
NMZ028-029-538-281300-
SOUTHEAST PLAINS

CITY           SKY/WX    TMP DP  RH WIND       PRES   REMARKS
ROSWELL        MOCLDY    62  58  86 SW7       30.00R
6HR MIN TEMP:  62; 6HR MAX TEMP:  70;

ARTESIA        CLEAR     61  61 100 W6        30.02R
CARLSBAD       CLEAR     64  60  87 S6        29.99R FOG
6HR MIN TEMP:  64; 6HR MAX TEMP:  73;

HOBBS          CLOUDY    66  66 100 E8        30.06R


$$



USA.gov is the U.S. government's official web portal to all federal, state and local government web resources and services.